Regional Weather Roundup
Issued by NWS

Home | Current Version | Previous Version | Graphics & Text | Print | Product List | Glossary On
Versions: 1 2 3 4 5 6 7 8 9 10 11 12 13 14 15 16 17 18 19 20 21 22 23 24 25 26 27 28 29 30 31 32 33 34 35 36 37 38 39 40 41 42 43 44 45 46 47 48 49 50
000
ASUS43 KMPX 211810
RWRMN
WEATHER ROUNDUP FOR MINNESOTA
NATIONAL WEATHER SERVICE TWIN CITIES/CHANHASSEN MN
100 PM CDT SUN SEP 21 2014


NOTE: "FAIR" INDICATES FEW OR NO CLOUDS BELOW 12,000 FEET WITH NO
SIGNIFICANT WEATHER AND/OR OBSTRUCTIONS TO VISIBILITY. N/A MEANS
CURRENT SKY AND/OR WEATHER CONDITIONS ARE NOT AVAILABLE.

MNZ060>063-068>070-211900-
   Twin Cities Metro

CITY           SKY/WX    TMP DP  RH WIND       PRES   REMARKS
TWIN CITIES    PTSUNNY   63  47  55 N15G22    30.14S
6HR MIN TEMP:  53; 6HR MAX TEMP:  63;

ST PAUL        PTSUNNY   61  48  62 NW16G24   30.14S
CRYSTAL        PTSUNNY   62  47  57 NW15G22   30.14R
BLAINE         PTSUNNY   64  50  59 N15G23    30.14S
LAKEVILLE      CLOUDY    61  48  63 NW9       30.14S
EDEN PRAIRIE   PTSUNNY   62  49  62 N14G20    30.14R
6HR MIN TEMP:  53; 6HR MAX TEMP:  62;

SOUTH ST PAUL  PTSUNNY   62  46  55 NW16      30.13S
LAKE ELMO      PTSUNNY   61  48  63 N12G18    30.14R
$$
MNZ001>005-007-008-013>017-022>024-027-028-211900-
   Northwest Minnesota

CITY           SKY/WX    TMP DP  RH WIND       PRES   REMARKS
BEMIDJI        MOSUNNY   59  48  68 NE8       30.19R
HALLOCK        PTSUNNY   61  54  77 NW6       30.21F
ROSEAU         CLOUDY    57  54  88 W8        30.20S
WARROAD        CLOUDY    59  54  82 NW6       30.20R
THIEF RVR FALL CLOUDY    55  50  82 NW7       30.22S
CROOKSTON      CLOUDY    54  52  94 N9        30.24S
FOSSTON        CLOUDY    55  50  82 NW7       30.23S
DETROIT LAKES  CLOUDY    55  50  82 N12G17    30.24R
MOORHEAD       PTSUNNY   59  55  88 N9        30.25S
PARK RAPIDS    PTSUNNY   60  48  64 NW15      30.19R
MAHNOMEN       CLOUDY    55  50  85 NW8       30.23R
$$
MNZ006-009>011-018-025>026-211900-
   North Central Minnesota

CITY           SKY/WX    TMP DP  RH WIND       PRES   REMARKS
BAUDETTE       MOSUNNY   59  50  72 NW8       30.19R
FLAG ISLAND    SUNNY     55  48  76 N3        30.17S
INTL FALLS     SUNNY     59  43  55 NW7       30.16S
6HR MIN TEMP:  47; 6HR MAX TEMP:  59;

WASKISH        MOSUNNY   61  50  67 CALM      30.18S
BIG FORK       SUNNY     61  45  55 N5        30.17S
LONGVILLE      MOSUNNY   61  46  59 NW6       30.17S
GRAND RAPIDS   PTSUNNY   55  45  67 NW10G17   30.17R
CRANE LAKE     SUNNY     54  41  62 NW3       30.17R
ORR            SUNNY     57  39  51 NW7       30.13S
COOK           SUNNY     57  41  54 NW5       30.15S
WALKER         MOCLDY    59  47  64 N8        30.18S
$$
MNZ012-019>021-037-211900-
   Northeast Minnesota

CITY           SKY/WX    TMP DP  RH WIND       PRES   REMARKS
DULUTH         SUNNY     60  38  43 N14       30.11R
6HR MIN TEMP:  51; 6HR MAX TEMP:  60;

ELY            SUNNY     54  39  58 NW10      30.13R
HIBBING        SUNNY     61  43  51 N15       30.14R
EVELETH        SUNNY     57  36  44 N8        30.14R
DULUTH HARBOR  SUNNY     57  48  72 E5        30.13R
TWO HARBORS    SUNNY     59  39  47 N7        30.09S
SILVER BAY     SUNNY     57  43  58 NW6       30.09R
GRAND MARAIS     N/A     51  43  74 S13       30.08R
G MARAIS ARPRT SUNNY     52  36  54 NW8       30.08R
$$
MNZ029>031-032-039>041-046>048-054>057-064-211900-
   West Central Minnesota

CITY           SKY/WX    TMP DP  RH WIND       PRES   REMARKS
FERGUS FALLS   CLOUDY    57  48  72 NW10G17   30.24R
WHEATON        MOSUNNY   63  48  59 NW15      30.25R
MORRIS         SUNNY     61  52  72 NW16      30.22S
ALEXANDRIA     CLOUDY    58  49  72 N13       30.22S
ELBOW LAKE     CLOUDY    59  51  73 NW13      30.22S
WADENA         CLOUDY    57  48  72 N8G16     30.20R
GLENWOOD       MOSUNNY   59  50  72 N10       30.21S
APPLETON       PTSUNNY   64  50  59 NW16G22   30.22S
BENSON         PTSUNNY   63  52  67 N12G17    30.21F
ORTONVILLE     PTSUNNY   63  48  59 N13G20    30.23S
MADISON        MOSUNNY   66  52  59 N14G20    30.22F
WILLMAR        FAIR      63  50  63 N13G20    30.21F
$$
MNZ033>034-036-042>043-049>051-058-059-211900-
   Central Minnesota

CITY           SKY/WX    TMP DP  RH WIND       PRES   REMARKS
ST CLOUD       PTSUNNY   64  47  53 NW12      30.17R
6HR MIN TEMP:  50; 6HR MAX TEMP:  65;

SAUK CENTRE    CLOUDY    60  48  66 N14       30.20R
PAYNESVILLE    CLOUDY    56  49  75 W10       30.20S
AITKIN         PTSUNNY   63  48  59 NW7       30.15S
PINE RIVER     MOSUNNY   61  48  63 N10G17    30.20R
BRAINERD       MOSUNNY   60  46  59 N15G22    30.17S
STAPLES        PTSUNNY   61  46  59 N12       30.19R
LONG PRAIRIE   CLOUDY    57  46  67 NW10G18   30.20S
LITTLE FALLS   PTSUNNY   61  46  59 NW9       30.17S
LITCHFIELD     CLOUDY    61  52  72 N14       30.19R
BUFFALO        MOSUNNY   63  47  57 NW8G18    30.17S
MAPLE LAKE     MOSUNNY   64  51  64 NW14      30.18R
$$
MNZ037-044-045-052-053-211900-
   East Central Minnesota

CITY           SKY/WX    TMP DP  RH WIND       PRES   REMARKS
PRINCETON      PTSUNNY   63  48  59 NW10G16   30.16R
MORA           PTSUNNY   59  45  58 NW10      30.17S
CAMBRIDGE      PTSUNNY   63  46  55 N12G18    30.13S
RUSH CITY      MOSUNNY   60  46  60 NW8       30.14S
MOOSE LAKE     MOSUNNY   59  45  58 NW10G20   30.12S
HINCKLEY       MOCLDY    59  46  63 NW12      30.14S
CLOQUET        MOSUNNY   61  41  48 NW12G22   30.12S
MCGREGOR       MOSUNNY   59  46  63 N9        30.16R
$$
MNZ071>073-080-081-089-090-097-098-211900-
   Southwest Minnesota

CITY           SKY/WX    TMP DP  RH WIND       PRES   REMARKS
MONTEVIDEO     MOSUNNY   64  52  63 N16G22    30.22F
GRANITE FALLS  PTSUNNY   61  50  67 N14G20    30.23S
CANBY          SUNNY     64  51  62 N13       30.24S
MARSHALL       PTSUNNY   64  46  52 N20G28    30.21S
REDWOOD FALLS  CLOUDY    61  50  67 N9G21     30.21R
OLIVIA         CLOUDY    61  50  67 N13G18    30.19S
PIPESTONE      MOSUNNY   64  45  48 NE10G20   30.23S
WINDOM         PTSUNNY   63  48  59 NW16      30.21R
WORTHINGTON    MOSUNNY   63  46  55 N17       30.23R
JACKSON        PTSUNNY   63  45  51 NW14G23   30.21R
TRACY          PTSUNNY   64  50  59 N15G22    30.22S
SLAYTON        MOSUNNY   63  46  54 N13G24    30.23S
$$
MNZ065>067-074>077-082>085-091>093-211900-
   South Central Minnesota

CITY           SKY/WX    TMP DP  RH WIND       PRES   REMARKS
MANKATO        MOSUNNY   63  45  51 N15G21    30.16S
NEW ULM        PTSUNNY   63  50  63 NW17      30.17S
ST JAMES       PTSUNNY   64  48  55 NW14G21   30.19S
FAIRMONT       CLOUDY    64  45  48 N14G20    30.18S
GLENCOE        PTSUNNY   62  46  56 NW10G18   30.16S
FARIBAULT      MOSUNNY   66  45  45 N14G20    30.15S
OWATONNA       MOSUNNY   61  46  59 N13       30.14S
WASECA         PTSUNNY   61  41  48 NW13G22   30.17R
ALBERT LEA     CLOUDY    61  48  63 N10G17    30.14S
$$
MNZ078>079-086>088-094>096-211900-
   Southeast Minnesota

CITY           SKY/WX    TMP DP  RH WIND       PRES   REMARKS
ROCHESTER      PTSUNNY   60  48  64 N13       30.13R
6HR MIN TEMP:  52; 6HR MAX TEMP:  61;

RED WING       MOSUNNY   63  46  55 NW9G21    30.10S
STANTON        PTSUNNY   60  47  61 NW13G22   30.13R
DODGE CENTER   PTSUNNY   59  48  67 N14G23    30.13R
WINONA         PTSUNNY   63  46  55 N12G21    30.08R
AUSTIN         PTSUNNY   61  48  63 NW14G21   30.13R
PRESTON        CLOUDY    58  52  80 N14       30.11R
$$
ABBREVIATIONS USED IN REMARKS
   TC - TEMPERATURES IN CELSIUS
  WCI - WIND CHILL INDEX
   HX - HEAT INDEX
  VSB - VISIBILITY
$$


USA.gov is the U.S. government's official web portal to all federal, state and local government web resources and services.